This demonstration page uses our WeatherBlox Daily Observations layout. Learn more.

Left ArrowRight Arrow

36.17497, -115.13722

Hourly Observations for April 1, 2017

Temp ( °F °C ) Dew Point ( °F °C ) Humidity (%) Winds ( mph kmh ) Pressure ( in mb ) Visibility ( mi km ) Precip ( " mm )
12:53 am 00:53 Cloudy 61 16.1 33 0.6 35 35 NNW 15 24 29.91 1013 10 16.0934 N/A
1:53 am 01:53 Clear 60 15.6 33 0.6 36 36 N 16 26 29.89 1012 10 16.0934 N/A
2:53 am 02:53 Clear 59 15 34 1.1 39 39 NNW 18 30 29.89 1012 10 16.0934 N/A
3:53 am 03:53 Clear 59 15 34 1.1 39 39 NNW 15 24 29.91 1013 10 16.0934 N/A
4:53 am 04:53 Clear 58 14.4 34 1.1 41 41 NNW 17 28 29.91 1013 10 16.0934 N/A
5:53 am 05:53 Clear 58 14.4 34 1.1 41 41 NNW 13 20 29.93 1014 10 16.0934 N/A
6:53 am 06:53 Sunny 56 13.3 34 1.1 44 44 NNW 15 24 29.96 1015 10 16.0934 N/A
7:53 am 07:53 Sunny 59 15 34 1.1 39 39 NNW 17 28 29.97 1015 10 16.0934 N/A
8:53 am 08:53 Sunny 65 18.3 34 1.1 32 32 NNW 21 33 29.98 1015 10 16.0934 N/A
9:53 am 09:53 Sunny 67 19.4 33 0.6 28 28 NNW 22 35 29.99 1016 10 16.0934 N/A
10:53 am 10:53 Sunny 69 20.6 33 0.6 26 26 NNW 20 31 29.99 1016 10 16.0934 N/A
11:53 am 11:53 Sunny 72 22.2 32 undefined 23 23 NNW 18 30 29.99 1016 10 16.0934 N/A
12:53 pm 12:53 Mostly Cloudy 72 22.2 31 -0.6 22 22 NNE 10 17 29.98 1015 10 16.0934 N/A
1:53 pm 13:53 Partly Cloudy 73 22.8 32 undefined 22 22 E 12 19 29.96 1014 10 16.0934 N/A
2:53 pm 14:53 Sunny 75 23.9 33 0.6 22 22 E 9 15 29.94 1014 10 16.0934 N/A
3:53 pm 15:53 Partly Cloudy 74 23.3 32 undefined 21 21 ESE 9 15 29.93 1014 10 16.0934 N/A
4:53 pm 16:53 Cloudy 64 18 30 -1 28 28 N 14 22 29.68 1005 10 16.0934 N/A
5:53 pm 17:53 Sunny 73 22.8 34 1.1 24 24 ESE 9 15 29.93 1014 10 16.0934 N/A
6:53 pm 18:53 Sunny 71 21.7 34 1.1 26 26 ESE 8 13 29.95 1014 10 16.0934 N/A
7:53 pm 19:53 Clear 69 20.6 34 1.1 27 27 SSE 7 11 29.96 1014 10 16.0934 N/A
8:53 pm 20:53 Clear 68 20 35 1.7 30 30 S 6 9 29.97 1015 10 16.0934 N/A
9:53 pm 21:53 Clear 65 18.3 34 1.1 32 32 N N/A 29.98 1015 10 16.0934 N/A
10:53 pm 22:53 Clear 65 18.3 36 2.2 34 34 N N/A 29.99 1016 10 16.0934 N/A
11:53 pm 23:53 Clear 61 16.1 37 2.8 41 41 WNW 3 6 29.99 1016 10 16.0934 N/A

Powered by AerisWeather